User: anonymous   Login
Location: Vancouver
(49.2500°N, 123.1330°W)
Time: 13:11:38
(UTC-08:00)
Language:

S-56A Canister/Altair - Orbit

View from above orbital plane
View from above orbital plane
View from above satellite
View from above satellite

Ground track
Ground track

The orbit data is extracted from the following two-line orbital elements,

1 00082U 61004B   17024.53296910  .00000070  00000-0  85147-4 0  9996
2 00082  38.8589 108.6616 1168278 220.5349 130.2362 12.25808099655635
Epoch (UTC): 24 January 2017 12:47:28
Eccentricity: 0.1168278
inclination: 38.8589°
perigee height: 639 km
apogee height: 2495 km
right ascension of ascending node: 108.6616°
argument of perigee: 220.5349°
revolutions per day: 12.25808099
mean anomaly at epoch: 130.2362°
orbit number at epoch: 65563

The dashed part of the orbit path shows where the satellite is in the earth's shadow,  

DLR